User: anonymous   Login
Location: Unspecified
(0.0000°N, 0.0000°E)
Time: 06:57:18
(UTC+00:00)
Language:

OFEQ 7 - Orbit

View from above orbital plane
View from above orbital plane
View from above satellite
View from above satellite

Ground track
Ground track

The orbit data is extracted from the following two-line orbital elements,

1 31601U 07025A   17076.74702730 0.00004500  00000-0  14416-3 0    07
2 31601 141.7051 216.2199 0009000 109.4948 250.5044 15.31422331    01
Epoch (UTC): 17 March 2017 17:55:43
Eccentricity: 0.0009000
inclination: 141.7051°
perigee height: 465 km
apogee height: 478 km
right ascension of ascending node: 216.2199°
argument of perigee: 109.4948°
revolutions per day: 15.31422331
mean anomaly at epoch: 250.5044°
orbit number at epoch: 0

The dashed part of the orbit path shows where the satellite is in the earth's shadow,  

DLR